User: anonymous   Login
Location: Unspecified
(0.0000°N, 0.0000°E)
Time: 09:46:21
(UTC+02:00)
Language:

ARIANE 5 R/B - Orbit

View from above orbital plane
View from above orbital plane
View from above satellite
View from above satellite

Ground track
Ground track

The orbit data is extracted from the following two-line orbital elements,

1 27387U 02009B   15247.48793605  .00000024  00000-0  23087-4 0  9999
2 27387  98.3728 201.0256 0031235 282.7216 184.6049 14.35856569708025
Epoch (UTC): 04 September 2015 11:42:37
Eccentricity: 0.0031235
inclination: 98.3728°
perigee height: 750 km
apogee height: 794 km
right ascension of ascending node: 201.0256°
argument of perigee: 282.7216°
revolutions per day: 14.35856569
mean anomaly at epoch: 184.6049°
orbit number at epoch: 70802

The dashed part of the orbit path shows where the satellite is in the earth's shadow,  

DLR